Regional Weather Roundup
Issued by NWS Jackson, KY

Home | Current Version | Previous Version | Text Only | Print | Product List | Glossary On
Versions: 1 2 3 4 5 6 7 8 9 10 11 12 13 14 15 16 17 18 19 20 21 22 23 24 25 26 27 28 29 30 31 32 33 34 35 36 37 38 39 40 41 42 43 44 45 46 47 48 49 50
000
ASUS43 KJKL 241419
RWRJKL

EAST KENTUCKY HOURLY WEATHER ROUNDUP
NATIONAL WEATHER SERVICE JACKSON KY
1000 AM EDT THU APR 24 2014

NOTE: "FAIR" INDICATES FEW OR NO CLOUDS BELOW 12,000 FEET WITH
NO SIGNIFICANT WEATHER AND/OR OBSTRUCTIONS TO VISIBILITY.

* THESE REPORTS ARE NOT UNDER NWS QUALITY CONTROL AND MAY NOT
  REPORT WEATHER SUCH AS PRECIPITATION AND FOG.

KYZ079-080-083-085-087-088-110-112-115-119-120-241500
...EASTERN KENTUCKY...

CITY           SKY/WX    TMP DP  RH WIND       PRES   REMARKS
JACKSON        CLOUDY    50  33  52 E6        30.09S
LONDON         CLOUDY    53  34  48 E3        30.07R
SOMERSET*      PTSUNNY   52  34  50 E5        30.07R
MIDDLESBORO*   MOSUNNY   55  36  49 CALM      30.08S
HARLAN APT*    CLOUDY    50  34  53 CALM      30.08S
BLACK MTN*       N/A     55  25  30 SW2         N/A
PIKEVILLE APT* CLOUDY    50  32  50 E5        30.10R
BIG SANDY*     CLOUDY    51  35  53 E5        30.11R
ASHLAND*         N/A    N/A N/A N/A SE7         N/A
MOREHEAD APT*  SUNNY    N/A N/A N/A E10       30.12S
$$

KYZ035-036-041-042-044-050-067-078-099-241500
...CENTRAL KENTUCKY...

CITY           SKY/WX    TMP DP  RH WIND       PRES   REMARKS
MT STERLING*   PTSUNNY   50  34  53 E12       30.10S
FLEMING/MASON* PTSUNNY   48  32  53 E8        30.11F
DANVILLE*      PTSUNNY   46  37  71 E3        30.07
RICHMOND*      PTSUNNY   52  34  50 E10       30.07S
LEXINGTON      PTSUNNY   52  36  54 E12       30.07F
FRANKFORT      PTSUNNY   53  38  56 E13       30.06F
$$

KYZ091>093-OHZ055-061-077-WVZ005-015-034-035-042-241500
...SOUTHERN OHIO/WEST VIRGINIA...

CITY           SKY/WX    TMP DP  RH WIND       PRES   REMARKS
COVINGTON      PTSUNNY   51  33  50 E10       30.10S
COLUMBUS       CLOUDY    50  13  22 E13       30.15F
DAYTON         PTSUNNY   50  20  30 SE16      30.13S
WILMINGTON     PTSUNNY   49  19  30 E15G25    30.11F
HUNTINGTON     PTSUNNY   49  31  49 E9        30.13F
CHARLESTON     PTSUNNY   49  32  52 VRB6      30.14S
PINEVILLE*     CLOUDY    50  37  60 MISG      30.16F
BECKLEY        CLOUDY    47  30  51 CALM      30.11R
BLUEFIELD      CLOUDY    49  29  46 E7        30.12R
$$

VAZ002-007-008-TNZ017-027-036-066-071-241500
...SOUTHWEST VIRGINIA/EAST TENNESSEE...

CITY           SKY/WX    TMP DP  RH WIND       PRES   REMARKS
WISE*          CLOUDY    55  30  38 NE5       30.10R
ABINGDON*      CLOUDY    55  33  43 E8        30.09S
BRISTOL        PTSUNNY   55  32  41 E7        30.08S
KNOXVILLE      MOSUNNY   56  35  45 NE5       30.05
OAK RIDGE      MOSUNNY   59  33  37 VRB5      30.07S
CROSSVILLE     SUNNY     59  28  30 SE9       30.04S
NASHVILLE      MOSUNNY   57  41  55 VRB3      30.01S
$$

...KEY TO REMARKS...
VSB - VISIBILITY IN MILES
WCI - WIND CHILL INDEX
HX  - HEAT INDEX

$$



USA.gov is the U.S. government's official web portal to all federal, state and local government web resources and services.